Weather History for Dunkirk, NY

Change the Weather History Date:

Tuesday, December 4, 2012

  Actual Average Record
Temperature  
Mean Temperature 55 °F -  
Max Temperature 64 °F 39 °F 70 °F (1941)
Min Temperature 45 °F 26 °F 1 °F (1966)
Degree Days  
Heating Degree Days 10    
Growing Degree Days 5 (Base 50)    
Moisture  
Dew Point 50 °F    
Average Humidity 84    
Maximum Humidity 100    
Minimum Humidity 63    
Precipitation  
Precipitation 0.44 in - - ()
Sea Level Pressure  
Sea Level Pressure 29.98 in    
Wind  
Wind Speed 13 mph (SW)    
Max Wind Speed 20 mph    
Max Gust Speed 30 mph    
Visibility 7 miles    
Events Rain    
Averages and records for this station are not official NWS values.
T = Trace of Precipitation, MM = Missing Value Source: NWS Daily Summary

Daily Weather History Graph

Daily Weather History Graph

Search for Another Location

Airport:

Trip Planner

Search our weather history database for the weather conditions in past years. The results will help you decide how hot, cold, wet, or windy it might be!

Date:

Astronomy

Dec. 04, 2012 Rise Set
Actual Time 7:30 AM EST 4:44 PM EST
Civil Twilight 6:59 AM EST 5:15 PM EST
Nautical Twilight 6:23 AM EST 5:51 PM EST
Astronomical Twilight 5:49 AM EST 6:25 PM EST
Moon 10:34 PM EST (12/4) 11:19 AM EST (12/4)
Length of Visible Light 10h 16m
Length of Day
9h 13m
Waning Gibbous, 69% of the Moon is Illuminated
Dec 4
Waning Gibbous
Dec 6
Last Quarter
Dec 13
New
Dec 20
First Quarter
Dec 28
Full

Hourly Weather History & Observations

Time (EST) Temp. Windchill Dew Point Humidity Pressure Visibility Wind Dir Wind Speed Gust Speed Precip Events Conditions
12:53 AM 61.0 °F - 54.0 °F 78% 30.05 in 10.0 mi SSW 13.8 mph - N/A   Scattered Clouds
1:53 AM 62.1 °F - 54.0 °F 75% 30.04 in 10.0 mi South 19.6 mph 29.9 mph N/A   Clear
2:53 AM 61.0 °F - 53.1 °F 75% 30.04 in 10.0 mi SSW 15.0 mph - N/A   Clear
3:53 AM 61.0 °F - 53.1 °F 75% 30.03 in 10.0 mi SSW 17.3 mph 28.8 mph N/A   Scattered Clouds
4:53 AM 61.0 °F - 52.0 °F 72% 30.03 in 10.0 mi SSW 15.0 mph 26.5 mph N/A   Clear
6:53 AM 61.0 °F - 51.1 °F 70% 30.01 in 10.0 mi SSW 16.1 mph 23.0 mph N/A   Partly Cloudy
7:53 AM 61.0 °F - 50.0 °F 67% 30.01 in 10.0 mi South 16.1 mph 26.5 mph N/A   Scattered Clouds
8:53 AM 61.0 °F - 50.0 °F 67% 30.01 in 10.0 mi South 19.6 mph 29.9 mph N/A   Scattered Clouds
9:53 AM 62.1 °F - 50.0 °F 65% 29.99 in 10.0 mi South 17.3 mph 24.2 mph N/A   Scattered Clouds
10:53 AM 64.0 °F - 51.1 °F 63% 29.99 in 10.0 mi South 13.8 mph 21.9 mph N/A   Mostly Cloudy
11:53 AM 64.0 °F - 51.1 °F 63% 29.95 in 10.0 mi South 11.5 mph - N/A   Overcast
12:53 PM 63.0 °F - 52.0 °F 67% 29.94 in 10.0 mi SSW 12.7 mph 21.9 mph 0.00 in   Overcast
1:53 PM 61.0 °F - 53.1 °F 75% 29.92 in 10.0 mi SSW 9.2 mph - 0.01 in   Overcast
2:53 PM 60.1 °F - 53.1 °F 78% 29.91 in 10.0 mi SW 13.8 mph - 0.00 in   Overcast
3:28 PM 59.0 °F - 53.6 °F 82% 29.91 in 4.0 mi SW 9.2 mph - 0.02 in Rain Light Rain
3:43 PM 53.6 °F - 51.8 °F 94% 29.94 in 2.5 mi West 13.8 mph 26.5 mph 0.06 in Rain Rain
3:53 PM 54.0 °F - 52.0 °F 93% 29.94 in 2.5 mi West 11.5 mph 19.6 mph 0.08 in Rain Light Rain
3:55 PM 53.6 °F - 51.8 °F 94% 29.93 in 3.0 mi West 10.4 mph 19.6 mph 0.00 in Rain Light Rain
4:00 PM 53.6 °F - 51.8 °F 94% 29.94 in 2.5 mi West 12.7 mph 19.6 mph 0.00 in Rain Light Rain
4:16 PM 51.8 °F - 51.8 °F 100% 29.93 in 2.5 mi West 9.2 mph 17.3 mph 0.00 in Rain Light Rain
4:26 PM 51.8 °F - 51.8 °F 100% 29.94 in 4.0 mi West 8.1 mph - 0.01 in Rain Light Rain
4:37 PM 51.8 °F - 51.8 °F 100% 29.94 in 1.8 mi West 10.4 mph - 0.07 in Rain Heavy Rain
4:53 PM 52.0 °F - 51.1 °F 97% 29.95 in 2.0 mi West 6.9 mph - 0.12 in Rain Rain
5:06 PM 51.8 °F - 51.8 °F 100% 29.95 in 3.0 mi West 9.2 mph 17.3 mph 0.03 in Rain Rain
5:21 PM 51.8 °F - 51.8 °F 100% 29.97 in 2.5 mi West 8.1 mph - 0.07 in Rain Rain
5:31 PM 51.8 °F - 50.0 °F 94% 29.97 in 4.0 mi SW 6.9 mph - 0.08 in Rain Light Rain
5:39 PM 51.8 °F - 51.8 °F 100% 29.97 in 7.0 mi WSW 8.1 mph - 0.08 in Rain Light Rain
5:53 PM 52.0 °F - 50.0 °F 93% 29.98 in 4.0 mi WSW 5.8 mph - 0.10 in Rain Rain
6:00 PM 51.8 °F - 50.0 °F 94% 29.97 in 4.0 mi WSW 6.9 mph - 0.02 in Rain Rain
6:12 PM 51.8 °F - 50.0 °F 94% 29.97 in 8.0 mi West 6.9 mph - 0.03 in Rain Light Rain
6:22 PM 51.8 °F - 48.2 °F 88% 29.97 in 10.0 mi WSW 6.9 mph - 0.03 in   Overcast
6:53 PM 51.1 °F - 48.9 °F 92% 29.99 in 6.0 mi SW 6.9 mph - 0.04 in Rain Light Rain
7:00 PM 51.8 °F - 48.2 °F 88% 29.99 in 6.0 mi WSW 9.2 mph - 0.01 in Rain Light Rain
7:53 PM 48.0 °F - 45.0 °F 89% 30.00 in 10.0 mi SW 10.4 mph - 0.08 in Rain Light Rain
8:53 PM 48.0 °F - 44.1 °F 86% 30.01 in 10.0 mi WSW 12.7 mph 24.2 mph 0.01 in Rain Light Rain
9:53 PM 46.0 °F 39.9 °F 39.0 °F 76% 30.01 in 10.0 mi SW 13.8 mph 21.9 mph 0.00 in   Overcast
10:53 PM 46.0 °F 39.9 °F 39.9 °F 79% 30.02 in 10.0 mi SW 13.8 mph 23.0 mph N/A   Clear
11:53 PM 45.0 °F 38.5 °F 41.0 °F 86% 30.03 in 10.0 mi WSW 13.8 mph 23.0 mph N/A   Partly Cloudy